This is the latest recevied weather packets stored in our database for station/object NK7E. If no packets are shown the sender has not sent any weather packets the latest 10 day(s).
| Time | Temp. | Humidity | Pressure | Rain* | Wind** | Luminosity | Snow |
|---|---|---|---|---|---|---|---|
| 1777959915 | 15° C | 85% | 1014.8 hPa | 2.54 mm | - | 0 W/m² | - |
| 1777959315 | 15° C | 84% | 1015.1 hPa | 2.03 mm | - | 0 W/m² | - |
| 1777958715 | 15.56° C | 84% | 1015 hPa | 1.27 mm | - | 0 W/m² | - |
| 1777958115 | 15° C | 82% | 1014.7 hPa | 1.02 mm | - | 0 W/m² | - |
| 1777957515 | 15.56° C | 84% | 1014.5 hPa | 1.02 mm | - | 0 W/m² | - |
| 1777956915 | 15.56° C | 84% | 1014.9 hPa | 0.76 mm | - | 0 W/m² | - |
| 1777956315 | 15.56° C | 83% | 1015.2 hPa | 0.51 mm | - | 0 W/m² | - |
| 1777955716 | 15.56° C | 80% | 1014.8 hPa | 0.51 mm | - | 0 W/m² | - |
| 1777955115 | 15.56° C | 80% | 1015 hPa | 0.51 mm | - | 0 W/m² | - |
| 1777954515 | 16.11° C | 80% | 1014.9 hPa | 0.25 mm | - | 0 W/m² | - |
| 1777953915 | 16.11° C | 77% | 1014.9 hPa | 0 mm | - | 0 W/m² | - |
| 1777953315 | 15.56° C | 77% | 1014.8 hPa | 0.25 mm | - | 0 W/m² | - |
| 1777952717 | 15.56° C | 76% | 1014.4 hPa | 0.25 mm | - | 0 W/m² | - |
| 1777952117 | 15.56° C | 74% | 1013.8 hPa | 0.51 mm | - | 0 W/m² | - |
| 1777951517 | 15.56° C | 76% | 1013.6 hPa | 0.51 mm | - | 0 W/m² | - |
| 1777950917 | 15° C | 74% | 1013.8 hPa | 0.76 mm | - | 0 W/m² | - |
| 1777950318 | 14.44° C | 72% | 1014.5 hPa | 1.27 mm | - | 0 W/m² | - |
| 1777949717 | 13.89° C | 72% | 1014.7 hPa | 1.52 mm | - | 0 W/m² | - |
| 1777949117 | 14.44° C | 75% | 1014.8 hPa | 1.78 mm | - | 0 W/m² | - |
| 1777948517 | 14.44° C | 71% | 1014.9 hPa | 1.78 mm | - | 0 W/m² | - |
| 1777947917 | 15° C | 71% | 1014.8 hPa | 1.78 mm | - | 0 W/m² | - |
| 1777947317 | 15° C | 69% | 1014.8 hPa | 1.78 mm | - | 0 W/m² | - |
| 1777946717 | 16.11° C | 65% | 1014.9 hPa | 1.27 mm | - | 0 W/m² | - |
| 1777946117 | 16.67° C | 58% | 1014.8 hPa | 0.76 mm | - | 0 W/m² | - |
| 1777945517 | 16.67° C | 57% | 1014.6 hPa | 0.76 mm | - | 0 W/m² | - |
* Rain latest hour (hover to see other rain measurements)
** Current wind speed in m/s (hover to see current wind gust speed)